Weather reports worldwide

Advertisment
Bologna/Borgo Panigale, Italy (16140): temperature & dewpoint: 17.10.2020 01:00:00 - 23.10.2020 01:00:00 (CEST)Bologna/Borgo Panigale, Italy (16140): wind speed: 17.10.2020 01:00:00 - 23.10.2020 01:00:00 (CEST)Bologna/Borgo Panigale, Italy (16140): wind direction: 17.10.2020 01:00:00 - 23.10.2020 01:00:00 (CEST)Bologna/Borgo Panigale, Italy (16140): reduced air pressure: 17.10.2020 01:00:00 - 23.10.2020 01:00:00 (CEST)Bologna/Borgo Panigale, Italy (16140): visibility: 17.10.2020 01:00:00 - 23.10.2020 01:00:00 (CEST)Bologna/Borgo Panigale, Italy (16140): precipitation: 17.10.2020 01:00:00 - 23.10.2020 01:00:00 (CEST)
Date & Time tt [°C] td [°C] ff [km/h] ff [kn] dd ppp [hPa] vv [km] rr [mm]
23.10.2020 01:00:00 12,0 12,0 2 1 - - 1,0 -
23.10.2020 00:00:00 12,0 12,0 2 1 - - 1,0 -
22.10.2020 23:00:00 11,8 11,3 2 1 - 1023,7 2,5 0,0
22.10.2020 22:00:00 13,0 13,0 4 2 - - 3,5 -
22.10.2020 21:00:00 14,0 13,0 5 3 E - 4,0 -
22.10.2020 20:00:00 15,0 12,7 4 2 - 1023,9 8 -
22.10.2020 19:00:00 16,0 12,0 2 1 - - 8 -
22.10.2020 18:00:00 18,0 12,0 8 4 N - 8 -
22.10.2020 17:00:00 18,7 12,2 5 3 NNE 1022,9 10 0,0
22.10.2020 16:00:00 19,0 12,0 9 5 N - 10 -
22.10.2020 15:00:00 19,0 13,0 8 4 N - 10 -
22.10.2020 14:00:00 18,8 11,9 5 3 N 1023,4 10 -
22.10.2020 13:00:00 18,0 11,0 8 4 NNE - 10 -
22.10.2020 12:00:00 17,0 11,0 5 3 - - 10 -
22.10.2020 11:00:00 15,4 10,1 5 3 WNW 1024,7 10 0,0
22.10.2020 10:00:00 13,0 9,0 5 3 S - 10 -
22.10.2020 09:00:00 10,0 8,0 11 6 SSW - 10 -
22.10.2020 08:00:00 9,3 7,8 5 3 SW 1024,2 10 -
22.10.2020 07:00:00 9,0 8,0 11 6 SSW - 10 -
22.10.2020 06:00:00 9,0 8,0 13 7 S - 10 -
22.10.2020 05:00:00 9,3 8,1 9 5 SSW 1024,2 10 0,0
22.10.2020 04:00:00 10,0 9,0 13 7 S - 10 -
22.10.2020 03:00:00 10,0 9,0 9 5 SSW - 10 -
22.10.2020 02:00:00 10,1 8,7 8 4 SW 1024,6 10 -
22.10.2020 01:00:00 10,0 9,0 8 4 SSW - 10 -
22.10.2020 00:00:00 11,0 9,0 9 5 SW - 10 -
21.10.2020 23:00:00 10,7 9,1 9 5 WSW 1024,2 10 0,0
21.10.2020 22:00:00 12,0 10,0 5 3 WSW - 10 -
21.10.2020 21:00:00 13,0 10,0 5 3 S - 10 -
21.10.2020 20:00:00 14,6 10,1 8 4 SSE 1023,7 10 -
21.10.2020 19:00:00 16,0 10,0 5 3 E - 10 -
21.10.2020 18:00:00 18,0 9,0 8 4 ESE - 10 -
21.10.2020 17:00:00 19,1 7,9 2 1 - 1023,2 10 0,0
21.10.2020 16:00:00 19,0 9,0 8 4 N - 10 -
21.10.2020 15:00:00 19,0 9,0 11 6 N - 10 -
21.10.2020 14:00:00 18,2 10,8 5 3 - 1024,1 7 -
21.10.2020 13:00:00 17,0 11,0 5 3 WSW - 6 -
21.10.2020 12:00:00 15,0 11,0 4 2 - - 5 -
21.10.2020 11:00:00 13,7 9,9 5 3 WSW 1025,2 7 0,0
21.10.2020 10:00:00 11,0 9,0 5 3 SW - 8 -
21.10.2020 09:00:00 9,0 8,0 9 5 SSW - 8 -
21.10.2020 08:00:00 8,1 7,1 9 5 SSW 1024,0 8 -
21.10.2020 07:00:00 9,0 8,0 9 5 SSW - 8 -
21.10.2020 06:00:00 9,0 8,0 11 6 S - 8 -
21.10.2020 05:00:00 8,6 7,6 8 4 SSW 1023,7 10 0,0
21.10.2020 04:00:00 9,0 8,0 8 4 SSW - 10 -
21.10.2020 03:00:00 10,0 8,0 5 3 SW - 10 -
21.10.2020 02:00:00 10,0 8,6 9 5 SSW 1024,5 10 -
21.10.2020 01:00:00 11,0 9,0 13 7 S - 10 -
21.10.2020 00:00:00 11,0 10,0 9 5 SSW - 8 -
20.10.2020 23:00:00 11,0 9,9 5 3 SSW 1024,6 7 0,0
20.10.2020 22:00:00 12,0 10,0 5 3 SW - 7 -
20.10.2020 21:00:00 13,0 11,0 5 3 WSW - 10 -
20.10.2020 20:00:00 13,4 11,0 4 2 SW 1024,7 10 -
20.10.2020 19:00:00 16,0 11,0 5 3 NW - 10 -
20.10.2020 18:00:00 17,0 10,0 4 2 N - 10 -
20.10.2020 17:00:00 17,4 10,6 5 3 ENE 1024,3 10 0,0
20.10.2020 16:00:00 18,0 11,0 8 4 N - 10 -
20.10.2020 15:00:00 18,0 11,0 8 4 N - 10 -
20.10.2020 14:00:00 17,2 10,1 5 3 NE 1025,3 10 -
20.10.2020 13:00:00 17,0 9,0 4 2 - - 10 -
20.10.2020 12:00:00 16,0 10,0 4 2 - - 10 -
20.10.2020 11:00:00 14,5 8,9 4 2 - 1025,7 10 0,0
20.10.2020 10:00:00 12,0 8,0 9 5 S - 10 -
20.10.2020 09:00:00 10,0 8,0 11 6 SSW - 10 -
20.10.2020 08:00:00 8,5 6,9 8 4 S 1024,8 10 -
20.10.2020 07:00:00 9,0 7,0 15 8 S - 10 -
20.10.2020 06:00:00 9,0 8,0 11 6 SSW - 10 -
20.10.2020 05:00:00 9,3 7,7 11 6 SSW 1024,4 10 0,0
20.10.2020 04:00:00 10,0 8,0 11 6 SSW - 10 -
20.10.2020 03:00:00 10,0 9,0 11 6 SSW - 10 -
20.10.2020 02:00:00 9,7 8,6 8 4 SSW 1024,9 10 -
20.10.2020 01:00:00 10,0 9,0 8 4 SSW - 10 -
20.10.2020 00:00:00 11,0 10,0 13 7 SSW - 10 -
19.10.2020 23:00:00 11,5 10,1 11 6 SSW 1024,5 10 0,0
19.10.2020 22:00:00 11,0 10,0 4 2 - - 10 -
19.10.2020 21:00:00 12,0 10,0 4 2 SSW - 10 -
19.10.2020 20:00:00 11,4 10,0 4 2 SSW 1024,1 10 -
19.10.2020 19:00:00 14,0 11,0 4 2 N - 10 -
19.10.2020 18:00:00 16,0 11,0 4 2 - - 10 -
19.10.2020 17:00:00 16,9 10,6 5 3 NNE 1023,7 10 0,0
19.10.2020 16:00:00 17,0 11,0 5 3 N - 10 -
19.10.2020 15:00:00 17,0 11,0 5 3 NNE - 9 -
19.10.2020 14:00:00 16,7 11,1 8 4 NNW 1024,4 9 -
19.10.2020 13:00:00 16,0 11,0 8 4 NW - 10 -
19.10.2020 12:00:00 14,0 10,0 8 4 WNW - 10 -
19.10.2020 11:00:00 13,3 9,8 8 4 W 1025,2 10 0,0
19.10.2020 10:00:00 12,0 9,0 5 3 SSW - 10 -
19.10.2020 09:00:00 10,0 8,0 9 5 S - 10 -
19.10.2020 08:00:00 8,6 7,5 11 6 SSW 1023,7 10 -
19.10.2020 07:00:00 9,0 8,0 13 7 S - 10 -
19.10.2020 06:00:00 10,0 8,0 11 6 SSW - 10 -
19.10.2020 05:00:00 9,6 8,4 11 6 SSW 1023,4 10 0,0
19.10.2020 04:00:00 10,0 9,0 15 8 SSW - 10 -
19.10.2020 03:00:00 11,0 9,0 5 3 S - 10 -
19.10.2020 02:00:00 10,4 9,9 4 2 - 1023,1 10 -
19.10.2020 01:00:00 9,0 8,0 5 3 ESE - 10 -
19.10.2020 00:00:00 11,0 9,0 9 5 S - 10 -
18.10.2020 23:00:00 11,1 9,5 9 5 SSW 1022,5 10 0,0
18.10.2020 22:00:00 11,0 10,0 8 4 SSW - 10 -
18.10.2020 21:00:00 12,0 10,0 9 5 SSW - 10 -
18.10.2020 20:00:00 12,0 10,0 4 2 SSW 1021,6 10 -
18.10.2020 19:00:00 14,0 10,0 4 2 NE - 10 -
18.10.2020 18:00:00 17,0 10,0 8 4 ENE - 10 -
18.10.2020 17:00:00 17,1 10,4 9 5 NE 1020,4 10 0,0
18.10.2020 16:00:00 17,0 9,0 4 2 - - 10 -
18.10.2020 15:00:00 18,0 11,0 5 3 - - 10 -
18.10.2020 14:00:00 16,9 10,6 8 4 N 1020,9 10 -
18.10.2020 13:00:00 17,0 11,0 4 2 - - 10 -
18.10.2020 12:00:00 15,0 10,0 5 3 - - 10 -
18.10.2020 11:00:00 13,8 9,3 4 2 - 1021,2 10 0,0
18.10.2020 10:00:00 11,0 9,0 8 4 SSW - 10 -
18.10.2020 09:00:00 9,0 7,0 11 6 S - 10 -
18.10.2020 08:00:00 7,5 6,4 4 2 S 1019,4 10 -
18.10.2020 07:00:00 8,0 7,0 9 5 SSW - 10 -
18.10.2020 06:00:00 9,0 7,0 9 5 SSW - 10 -
18.10.2020 05:00:00 8,5 7,0 9 5 SW 1018,4 10 0,0
18.10.2020 04:00:00 9,0 7,0 8 4 SW - 10 -
18.10.2020 03:00:00 - - - - - - - -
18.10.2020 02:00:00 9,3 7,9 5 3 SW 1017,9 - -
18.10.2020 01:00:00 10,0 8,0 11 6 S - 10 -
18.10.2020 00:00:00 10,0 9,0 9 5 SSW - 10 -
17.10.2020 23:00:00 10,3 9,2 4 2 - 1017,3 10 0,0
17.10.2020 22:00:00 11,0 10,0 8 4 SSW - 10 -
17.10.2020 21:00:00 12,0 10,0 5 3 E - 10 -
17.10.2020 20:00:00 12,4 10,1 11 6 E 1016,3 10 -
17.10.2020 19:00:00 15,0 10,0 5 3 NE - 10 -
17.10.2020 18:00:00 16,0 9,0 8 4 NE - 10 -
17.10.2020 17:00:00 16,5 9,1 9 5 NE 1014,9 10 0,0
17.10.2020 16:00:00 18,0 10,0 11 6 ENE - 10 -
17.10.2020 15:00:00 17,0 10,0 9 5 NNE - 10 -
17.10.2020 14:00:00 16,9 9,2 11 6 NNE 1014,9 10 -
17.10.2020 13:00:00 16,0 8,0 8 4 NNE - 10 -
17.10.2020 12:00:00 15,0 8,0 4 2 - - 10 -
17.10.2020 11:00:00 13,5 7,0 4 2 - 1015,6 10 0,0
17.10.2020 10:00:00 11,0 7,0 11 6 SSW - 10 -
17.10.2020 09:00:00 9,0 6,0 16 9 S - 10 -
17.10.2020 08:00:00 8,1 5,8 15 8 S 1014,1 10 -
17.10.2020 07:00:00 8,0 6,0 13 7 S - 10 -
17.10.2020 06:00:00 8,0 6,0 15 8 S - 10 -
17.10.2020 05:00:00 8,4 6,5 13 7 S 1013,8 10 0,0
17.10.2020 04:00:00 9,0 7,0 13 7 SSW - 10 -
17.10.2020 03:00:00 9,0 7,0 13 7 SSW - 10 -
17.10.2020 02:00:00 9,1 7,3 13 7 SSW 1013,9 10 -
17.10.2020 01:00:00 9,0 8,0 13 7 SSW - 10 -

tt = temperature
td = dewpoint
ff = wind speed
dd = wind direction
ppp = reduced air pressure
vv = visibility
rr = precipitation

Next stations